Denver, CO

11:22 AM MDT on March 23, 2017 (GMT -0600)
Denver International

Weather History for KDEN - December, 2014

Change the Weather History Date:

Wednesday, December 3, 2014

  Actual Average Record
Temperature  
Mean Temperature 34 °F 31 °F  
Max Temperature 44 °F 45 °F 69 °F (1885)
Min Temperature 23 °F 18 °F -3 °F (1873)
Degree Days  
Heating Degree Days 31 34  
Month to date heating degree days 90 100  
Since 1 July heating degree days 1344 1482  
Cooling Degree Days 0 0  
Month to date cooling degree days 0 0  
Year to date cooling degree days 701 769  
Moisture  
Dew Point 21 °F    
Average Humidity 62    
Maximum Humidity 88    
Minimum Humidity 36    
Precipitation  
Precipitation 0.00 in 0.01 in 0.47 in (1973)
Month to date precipitation 0.00 0.03  
Year to date precipitation 18.18 13.98  
Snow  
Snow 0.00 in - - ()
Month to date snowfall 0  
Since 1 July snowfall 4  
Snow Depth 0.00 in    
Sea Level Pressure  
Sea Level Pressure 30.06 in    
Wind  
Wind Speed 9 mph (SW)    
Max Wind Speed 26 mph    
Max Gust Speed 32 mph    
Visibility 10 miles    
Events      
T = Trace of Precipitation, MM = Missing Value Source: NWS Daily Summary

Daily Weather History Graph

Daily Weather History Graph

Search for Another Location

Airport or City:

Trip Planner

Search our weather history database for the weather conditions in past years. The results will help you decide how hot, cold, wet, or windy it might be!

Date:

Astronomy

Dec. 03, 2014 Rise Set
Actual Time 7:02 AM MST 4:33 PM MST
Civil Twilight 6:32 AM MST 5:04 PM MST
Nautical Twilight 5:59 AM MST 5:37 PM MST
Astronomical Twilight 5:26 AM MST 6:10 PM MST
Moon 2:55 PM MST (12/3) 3:53 AM MST (12/3)
Length of Visible Light 10h 31m
Length of Day
9h 31m
Waxing Gibbous, 92% of the Moon is Illuminated
Dec 3
Waxing Gibbous
Dec 6
Full
Dec 14
Last Quarter
Dec 21
New
Dec 28
First Quarter

Hourly Weather History & Observations

Time (MST) Temp. Windchill Dew Point Humidity Pressure Visibility Wind Dir Wind Speed Gust Speed Precip Events Conditions
12:53 AM 27.0 °F 19.5 °F 21.9 °F 81% 30.07 in 10.0 mi NNW 6.9 mph - N/A   Mostly Cloudy
1:53 AM 27.0 °F 19.5 °F 21.9 °F 81% 30.10 in 10.0 mi NW 6.9 mph - N/A   Mostly Cloudy
2:53 AM 26.1 °F 19.4 °F 21.0 °F 81% 30.11 in 10.0 mi North 5.8 mph - N/A   Mostly Cloudy
3:53 AM 25.0 °F 20.7 °F 21.9 °F 88% 30.13 in 10.0 mi NE 3.5 mph - N/A   Mostly Cloudy
4:53 AM 25.0 °F 18.1 °F 21.9 °F 88% 30.17 in 10.0 mi SE 5.8 mph - N/A   Mostly Cloudy
5:53 AM 26.1 °F 19.4 °F 21.9 °F 84% 30.15 in 10.0 mi ENE 5.8 mph - N/A   Overcast
6:53 AM 27.0 °F 20.5 °F 23.0 °F 85% 30.20 in 10.0 mi SE 5.8 mph - N/A   Overcast
7:53 AM 28.9 °F 22.8 °F 24.1 °F 82% 30.19 in 10.0 mi SSE 5.8 mph - N/A   Mostly Cloudy
8:53 AM 35.1 °F 25.5 °F 21.9 °F 59% 30.18 in 10.0 mi SE 15.0 mph - N/A   Mostly Cloudy
9:53 AM 41.0 °F 31.4 °F 19.0 °F 41% 30.09 in 10.0 mi SSE 21.9 mph - N/A   Mostly Cloudy
10:53 AM 43.0 °F 35.1 °F 18.0 °F 37% 30.07 in 10.0 mi South 17.3 mph 28.8 mph N/A   Mostly Cloudy
11:11 AM 39.9 °F 32.9 °F 23.0 °F 51% 30.05 in 10.0 mi West 11.5 mph 20.7 mph N/A   Mostly Cloudy
11:53 AM 41.0 °F 34.3 °F 23.0 °F 49% 30.06 in 10.0 mi WNW 11.5 mph - N/A   Mostly Cloudy
12:53 PM 42.1 °F 35.7 °F 21.9 °F 45% 30.00 in 10.0 mi WNW 11.5 mph - N/A   Mostly Cloudy
1:53 PM 43.0 °F 36.4 °F 21.0 °F 42% 29.97 in 10.0 mi WNW 12.7 mph - N/A   Mostly Cloudy
2:53 PM 43.0 °F 38.2 °F 21.0 °F 42% 29.97 in 10.0 mi NW 8.1 mph - N/A   Mostly Cloudy
3:53 PM 41.0 °F 36.4 °F 21.0 °F 45% 29.99 in 10.0 mi WSW 6.9 mph - N/A   Mostly Cloudy
4:53 PM 36.0 °F 30.3 °F 21.0 °F 55% 30.03 in 10.0 mi WSW 6.9 mph - N/A   Mostly Cloudy
5:53 PM 34.0 °F 26.6 °F 21.0 °F 59% 30.04 in 10.0 mi WSW 9.2 mph - N/A   Mostly Cloudy
6:53 PM 34.0 °F 28.8 °F 21.0 °F 59% 30.02 in 10.0 mi West 5.8 mph - N/A   Mostly Cloudy
7:53 PM 30.9 °F 22.8 °F 21.0 °F 67% 30.03 in 10.0 mi SW 9.2 mph - N/A   Mostly Cloudy
8:53 PM 33.1 °F 24.9 °F 19.9 °F 59% 29.98 in 10.0 mi SSW 10.4 mph - N/A   Mostly Cloudy
9:53 PM 28.0 °F 20.0 °F 19.0 °F 69% 29.97 in 10.0 mi South 8.1 mph - N/A   Mostly Cloudy
10:53 PM 37.4 °F 29.8 °F 23.0 °F 56% 29.98 in 10.0 mi South 11.5 mph - N/A   Mostly Cloudy
11:53 PM 30.0 °F 22.4 °F 21.0 °F 69% 29.96 in 10.0 mi SE 8.1 mph - N/A   Mostly Cloudy